Location: Mentone
(34.5413°N, 85.5351°W)
Time: 20:52:47
(UTC-05:00)

A-11 Canister half - Visible Passes

Search period start: 26 September 2016 00:00
Search period end: 06 October 2016 00:00
Orbit: 1525 x 1684 km, 47.3° (Epoch: 26 September)

Date Brightness Start Highest point End Pass type
(mag) Time Alt. Az. Time Alt. Az. Time Alt. Az.
26 Sep 10.5 20:12:47 10° WNW 20:20:56 31° SW 20:29:17 10° S visible
27 Sep 10.5 19:51:06 10° WNW 19:59:24 33° SW 20:07:55 10° S visible
28 Sep 10.5 19:29:24 10° WNW 19:37:51 35° SW 19:46:32 10° S visible
29 Sep 10.5 19:07:44 10° WNW 19:16:18 37° SW 19:25:07 10° SSE visible
30 Sep 10.4 18:46:03 10° WNW 18:54:45 39° SW 19:03:41 10° SSE visible
